Lexington Weather

Lexington, Massachusetts, USA

78°F
7/25/2024 12:05pm 
  • Lexington Conditions: Mostly cloudy
  • Temperature: 77.7°F / 25.4°CWarmer 1.4°F than last hour.
  • Dew Point: 72.5°FIncreased 0.4°Fsince last hour.
  • Relative Humidity: 84%Decreased 3.0% since last hour.
  • Wind: Wind from SE SE 4 mph, 10-min avg: 2 mph, gust: 9 mph
  • Barometer: 29.94 inFalling 0.02  inHg/hr Falling Slowly
  • Visibility: 10 miles
  • Rain Today: 0.00 in
  •   

Regional Weather Roundup
for Boston, MA

        
000
ASUS41 KBOX 202310
RWRBOX

REGIONAL WEATHER ROUNDUP
NATIONAL WEATHER SERVICE BOSTON/NORTON MA
700 PM EDT SAT JUL 20 2024

NOTE:  "FAIR" INDICATES FEW OR NO CLOUDS BELOW 12,000 FEET WITH NO 
SIGNIFICANT WEATHER AND/OR OBSTRUCTIONS TO VISIBILITY.

MAZALL-210000-
EASTERN MASSACHUSETTS
  
CITY           SKY/WX    TMP DP  RH WIND       PRES   REMARKS
BOSTON         PTSUNNY   83  59  44 SW10      29.99R                  
BEVERLY        SUNNY     82  57  42 W10G18    29.97S                  
LAWRENCE       MOSUNNY   81  59  47 SW10      29.99S                  
BEDFORD        MOSUNNY   79  60  52 SW8       29.98S                  
NORWOOD        MOSUNNY   83  67  58 SW7       30.00S                  
MARSHFIELD     SUNNY     81  63  54 SW12      30.00R                  
PLYMOUTH       SUNNY     80  63  55 SW10      30.02R                  
TAUNTON        MOSUNNY   81  66  60 SW9       30.01S                  
NEW BEDFORD    MOSUNNY   78  66  66 SW13G20   30.03R                  
$$

MAZALL-210000-
CAPE COD AND THE ISLANDS
  
CITY           SKY/WX    TMP DP  RH WIND       PRES   REMARKS
FALMOUTH       SUNNY     75  68  78 W12       30.05S                  
HYANNIS        SUNNY     75  67  76 SW21G28   30.02S                  
CHATHAM        SUNNY     76  68  76 SW12G24   30.04S                  
PROVINCETOWN   SUNNY     72  66  81 SW13      30.02S                  
NANTUCKET      MOSUNNY   72  69  90 SW10      30.06S                  
MARTHAS VNYRD  MOSUNNY   75  68  78 SW9G20    30.05R                  
$$
 
MAZALL-210000-
CENTRAL AND WESTERN MASSACHUSETTS
  
CITY           SKY/WX    TMP DP  RH WIND       PRES   REMARKS
WORCESTER      LGT RAIN  77  63  61 SW12      30.04S                  
FITCHBURG      PTSUNNY   80  64  58 SW7       30.01S                  
ORANGE           N/A     79  64  60 SW9       30.02S                  
SPRINGFIELD    DRIZZLE   73  64  73 S5        29.98S                  
WESTFIELD      CLOUDY    70  68  93 CALM      30.01S                  
NORTH ADAMS    PTSUNNY   77  66  68 SW7       30.01S                  
PITTSFIELD     PTSUNNY   72  64  76 S5        30.03F                  
$$
 
RIZALL-210000-
RHODE ISLAND
  
CITY           SKY/WX    TMP DP  RH WIND       PRES   REMARKS
PROVIDENCE     MOSUNNY   78  67  68 SW12      30.03R                  
NEWPORT        MOSUNNY   73  66  78 SW8G18    30.04S                  
BLOCK ISLAND   PTSUNNY   74  67  78 SW15        N/A                   
SMITHFIELD     MOSUNNY   76  67  73 SW5       30.04S                  
WESTERLY       PTSUNNY   77  65  66 SW6       30.04S                  
$$
 
CTZALL-210000-
CONNECTICUT
  
CITY           SKY/WX    TMP DP  RH WIND       PRES   REMARKS
BRADLEY INTL   CLOUDY    72  67  84 S5        30.02S                  
HARTFORD       PTSUNNY   71  68  90 SE3       30.02S                  
PLAINVILLE     MOCLDY    72  71  96 CALM      30.02F                  
BRIDGEPORT     PTSUNNY   80  66  62 SW12      30.03S                  
DANBURY        PTSUNNY   79  64  60 S6        30.05S                  
GROTON         PTSUNNY   75  67  76 SW12      30.03S                  
NEW HAVEN      PTSUNNY   80  69  69 W5        30.04R                  
CHESTER        PTSUNNY   77  64  65 S7        30.05S                  
MERIDEN        PTSUNNY   80  62  54 S8        30.03R                  
WILLIMANTIC    LGT RAIN  68  65  90 NE3       30.05F                  
OXFORD         PTSUNNY   76  66  71 SW9       30.06S                  
$$

MEZ002-015-021-024-NHZ003-005-008-011-012-014-VTZ005-008-210000-
NORTHERN NEW ENGLAND
  
CITY           SKY/WX    TMP DP  RH WIND       PRES   REMARKS
PORTLAND ME    MOSUNNY   77  60  55 S9        29.96R                  
BANGOR ME      MOSUNNY   79  57  46 SW7       29.93S                  
CONCORD NH     MOSUNNY   82  52  35 W9        29.97R                  
MANCHESTER NH  PTSUNNY   83  60  45 SW8       29.97R                  
NASHUA NH      MOSUNNY   80  63  55 SW3       29.99S                  
PORTSMOUTH NH  PTSUNNY   83  59  44 SW6       29.95S                  
JAFFREY NH     PTSUNNY   79  61  53 S6        30.03S                  
KEENE NH       PTSUNNY   79  63  57 SW7       29.99S                  
BURLINGTON VT  MOSUNNY   83  52  34 W3        29.96S                  
MT. WASHINGTON PTSUNNY   50  46  87 W33         N/A                   
$$

NYZ052-076-210000-
EASTERN NEW YORK
  
CITY           SKY/WX    TMP DP  RH WIND       PRES   REMARKS
ALBANY         PTSUNNY   80  65  59 S7        29.99S                  
NEW YORK CITY  CLOUDY    82  62  50 S14G21    30.03S                  
$$
 
ANZALL-210000-
MARINE OBSERVATIONS
  
STATION/POSITION TIME  TEMP    WIND        PRES    VSBY  WAVE
                       AIR SEA DIR/SP/G                  HT/PER
                 (UTC) (F)     (DEG/KT/KT) (MB)    (MI)  (FT/S)
BOSTON BUOY      2240   74 69  240/  8/  8 1015.6F
BUZZARDS BAY     2200   73     230/ 19/ 20 1017.3F
NANTUCKET SOUND  2250   76 76  240/ 17/ 21 1016.7S         2/ 3
MASS BAY-STELLWA 2104   69 64  170/  6/  8 1015.9F  1 7/8  1/ 8
ISLE OF SHOALS   2200   78     190/ 17/ 18 1014.0F
S OF BLOCK IS    2256      74                N/A           3/ 8
$$

......................KEY.........................
  SKY/WX - SKY CONDITION/PRESENT WEATHER
  TMP    - TEMPERATURE IN FAHRENHEIT
  DWPT   - DEWPOINT IN FAHRENHEIT
  RH     - RELATIVE HUMIDITY IN PERCENT
  WIND   - DIRECTION AND SPEED IN MPH
  PRES   - MEAN SEA LEVEL PRESSURE IN INCHES OF HG
  WCI    - WIND CHILL INDEX
  VSB    - VISIBILITY IN MILES
  HX     - HEAT INDEX
  TC     - TEMPERATURE IN CELSIUS
  VRB    - VARIABLE WIND DIRECTION
  N/A    - NOT AVAILABLE
  
      

Other recent Regional Weather Roundups

Thu Jul 25, 11:10am EDT

Thu Jul 25, 10:10am EDT

Thu Jul 25, 9:10am EDT

Thu Jul 25, 8:10am EDT

Thu Jul 25, 7:10am EDT

Thu Jul 25, 6:10am EDT

Thu Jul 25, 5:10am EDT

Thu Jul 25, 4:10am EDT

Thu Jul 25, 3:10am EDT

Thu Jul 25, 2:10am EDT

Thu Jul 25, 1:10am EDT

Thu Jul 25, 12:10am EDT

Wed Jul 24, 11:10pm EDT

Wed Jul 24, 10:10pm EDT

Wed Jul 24, 9:10pm EDT

Wed Jul 24, 8:10pm EDT

Wed Jul 24, 7:10pm EDT

Wed Jul 24, 6:10pm EDT

Wed Jul 24, 5:10pm EDT

Wed Jul 24, 4:10pm EDT

Wed Jul 24, 3:10pm EDT

Wed Jul 24, 2:10pm EDT

Wed Jul 24, 1:10pm EDT

Wed Jul 24, 12:10pm EDT

Wed Jul 24, 11:10am EDT

Wed Jul 24, 10:10am EDT

Wed Jul 24, 9:10am EDT

Wed Jul 24, 8:10am EDT

Wed Jul 24, 7:10am EDT

Wed Jul 24, 6:10am EDT

Wed Jul 24, 5:10am EDT

Wed Jul 24, 4:10am EDT

Wed Jul 24, 3:10am EDT

Wed Jul 24, 2:10am EDT

Wed Jul 24, 1:10am EDT

Wed Jul 24, 12:10am EDT

Tue Jul 23, 11:10pm EDT

Tue Jul 23, 10:10pm EDT

Tue Jul 23, 9:10pm EDT

Tue Jul 23, 8:10pm EDT

Tue Jul 23, 7:10pm EDT

Tue Jul 23, 6:10pm EDT

Tue Jul 23, 5:10pm EDT

Tue Jul 23, 4:10pm EDT

Tue Jul 23, 3:10pm EDT

Tue Jul 23, 2:10pm EDT

Tue Jul 23, 1:10pm EDT

Tue Jul 23, 12:10pm EDT

Tue Jul 23, 11:10am EDT

Tue Jul 23, 10:10am EDT

Tue Jul 23, 10:10am EDT

Tue Jul 23, 9:10am EDT

Tue Jul 23, 8:10am EDT

Tue Jul 23, 7:10am EDT

Tue Jul 23, 6:10am EDT

Tue Jul 23, 5:10am EDT

Tue Jul 23, 4:10am EDT

Tue Jul 23, 3:10am EDT

Tue Jul 23, 2:10am EDT

Tue Jul 23, 1:10am EDT

Tue Jul 23, 12:10am EDT

Mon Jul 22, 11:10pm EDT

Mon Jul 22, 10:10pm EDT

Mon Jul 22, 9:10pm EDT

Mon Jul 22, 8:10pm EDT

Mon Jul 22, 7:10pm EDT

Mon Jul 22, 6:10pm EDT

Mon Jul 22, 5:10pm EDT

Mon Jul 22, 4:10pm EDT

Mon Jul 22, 3:10pm EDT

Mon Jul 22, 2:10pm EDT

Mon Jul 22, 1:10pm EDT

Mon Jul 22, 12:10pm EDT

Mon Jul 22, 11:10am EDT

Mon Jul 22, 10:10am EDT

Mon Jul 22, 9:10am EDT

Mon Jul 22, 8:10am EDT

Mon Jul 22, 7:10am EDT

Mon Jul 22, 6:10am EDT

Mon Jul 22, 5:10am EDT

Mon Jul 22, 4:10am EDT

Mon Jul 22, 3:10am EDT

Mon Jul 22, 2:10am EDT

Mon Jul 22, 1:10am EDT

Mon Jul 22, 12:10am EDT

Sun Jul 21, 11:10pm EDT

Sun Jul 21, 10:10pm EDT

Sun Jul 21, 9:10pm EDT

Sun Jul 21, 8:10pm EDT

Sun Jul 21, 7:10pm EDT

Sun Jul 21, 6:10pm EDT

Sun Jul 21, 5:10pm EDT

Sun Jul 21, 4:10pm EDT

Sun Jul 21, 3:10pm EDT

Sun Jul 21, 2:10pm EDT

Sun Jul 21, 1:10pm EDT

Sun Jul 21, 12:10pm EDT

Sun Jul 21, 11:10am EDT

Sun Jul 21, 10:10am EDT

Sun Jul 21, 9:10am EDT

Sun Jul 21, 8:10am EDT

Sun Jul 21, 7:10am EDT

Sun Jul 21, 6:10am EDT

Sun Jul 21, 5:10am EDT

Sun Jul 21, 4:10am EDT

Sun Jul 21, 3:10am EDT

Sun Jul 21, 2:10am EDT

Sun Jul 21, 1:10am EDT

Sun Jul 21, 12:10am EDT

Sat Jul 20, 11:10pm EDT

Sat Jul 20, 10:10pm EDT

Sat Jul 20, 9:10pm EDT

Sat Jul 20, 8:10pm EDT

Sat Jul 20, 6:10pm EDT

Sat Jul 20, 5:10pm EDT

Sat Jul 20, 4:10pm EDT

Sat Jul 20, 3:10pm EDT

Sat Jul 20, 2:10pm EDT

Sat Jul 20, 1:10pm EDT

Sat Jul 20, 12:10pm EDT

Sat Jul 20, 11:10am EDT

Sat Jul 20, 10:10am EDT

Sat Jul 20, 9:10am EDT

Sat Jul 20, 8:10am EDT

Sat Jul 20, 7:10am EDT

Sat Jul 20, 6:10am EDT

Sat Jul 20, 5:10am EDT

Sat Jul 20, 4:10am EDT

Sat Jul 20, 3:10am EDT

Sat Jul 20, 2:10am EDT

Sat Jul 20, 1:10am EDT

Sat Jul 20, 12:10am EDT

Fri Jul 19, 11:10pm EDT

Fri Jul 19, 10:10pm EDT

Fri Jul 19, 9:10pm EDT

Fri Jul 19, 8:10pm EDT

Fri Jul 19, 7:10pm EDT

Fri Jul 19, 6:10pm EDT

Fri Jul 19, 5:10pm EDT

Fri Jul 19, 4:10pm EDT

Fri Jul 19, 3:10pm EDT

Fri Jul 19, 2:10pm EDT

Fri Jul 19, 1:10pm EDT

Fri Jul 19, 12:10pm EDT

Fri Jul 19, 11:10am EDT

Fri Jul 19, 10:10am EDT

Fri Jul 19, 9:10am EDT

Fri Jul 19, 8:10am EDT

Fri Jul 19, 7:10am EDT

Fri Jul 19, 6:10am EDT

Fri Jul 19, 5:10am EDT

Fri Jul 19, 4:10am EDT

Fri Jul 19, 3:10am EDT

Fri Jul 19, 2:10am EDT

Fri Jul 19, 1:10am EDT

Fri Jul 19, 12:10am EDT

Thu Jul 18, 11:10pm EDT

Thu Jul 18, 10:10pm EDT

Thu Jul 18, 9:10pm EDT

Thu Jul 18, 8:10pm EDT

Thu Jul 18, 7:10pm EDT

Thu Jul 18, 6:10pm EDT

Thu Jul 18, 5:10pm EDT

Thu Jul 18, 4:10pm EDT

Thu Jul 18, 3:10pm EDT

Thu Jul 18, 2:10pm EDT

Thu Jul 18, 1:10pm EDT

Thu Jul 18, 12:10pm EDT